This is the latest recevied weather packets stored in our database for station/object SR4DIG-13. If no packets are shown the sender has not sent any weather packets the latest 10 day(s).
| Time | Temp. | Humidity | Pressure | Rain* | Wind** | Luminosity | Snow |
|---|---|---|---|---|---|---|---|
| 1788176335 | 29.44° C | 39% | 1013 hPa | 0 mm | - | - | - |
| 1788176033 | 30° C | 37% | 1013 hPa | 0 mm | - | - | - |
| 1788175732 | 30.56° C | 36% | 1013 hPa | 0 mm | - | - | - |
| 1788175431 | 33.89° C | 32% | 1013.1 hPa | 0 mm | - | - | - |
| 1788175130 | 35° C | 33% | 1013.1 hPa | 0 mm | - | - | - |
| 1788174829 | 34.44° C | 34% | 1013.2 hPa | 0 mm | - | - | - |
| 1788174529 | 33.89° C | 34% | 1013 hPa | 0 mm | - | - | - |
| 1788173932 | 33.33° C | 34% | 1013 hPa | 0 mm | - | - | - |
| 1788173631 | 32.78° C | 35% | 1013.3 hPa | 0 mm | - | - | - |
| 1788173330 | 32.78° C | 35% | 1013.3 hPa | 0 mm | - | - | - |
| 1788173029 | 32.78° C | 34% | 1013.1 hPa | 0 mm | - | - | - |
| 1788172728 | 35° C | 32% | 1013.1 hPa | 0 mm | - | - | - |
| 1788172427 | 36.11° C | 31% | 1013.4 hPa | 0 mm | - | - | - |
| 1788172127 | 36.67° C | 31% | 1013.3 hPa | 0 mm | - | - | - |
| 1788171825 | 36.11° C | 33% | 1013.3 hPa | 0 mm | - | - | - |
| 1788171524 | 36.11° C | 32% | 1013 hPa | 0 mm | - | - | - |
| 1788171223 | 36.67° C | 32% | 1013 hPa | 0 mm | - | - | - |
| 1788170923 | 35.56° C | 34% | 1013 hPa | 0 mm | - | - | - |
| 1788170622 | 35° C | 34% | 1013.1 hPa | 0 mm | - | - | - |
| 1788170321 | 34.44° C | 35% | 1013.3 hPa | 0 mm | - | - | - |
| 1788170020 | 33.89° C | 37% | 1013.3 hPa | 0 mm | - | - | - |
| 1788169719 | 32.78° C | 38% | 1013.4 hPa | 0 mm | - | - | - |
| 1788169418 | 32.22° C | 41% | 1013.3 hPa | 0 mm | - | - | - |
| 1788169117 | 30.56° C | 42% | 1013.3 hPa | 0 mm | - | - | - |
| 1788168816 | 30° C | 41% | 1013.3 hPa | 0 mm | - | - | - |
* Rain latest hour (hover to see other rain measurements)
** Current wind speed in m/s (hover to see current wind gust speed)